User: anonymous   Login
Location: Unspecified
(0.0000°N, 0.0000°E)
Time: 10:28:33
(UTC+02:00)
Language:

ARIANE 5 R/B - Orbit

View from above orbital plane
View from above orbital plane
View from above satellite
View from above satellite

Ground track
Ground track

The orbit data is extracted from the following two-line orbital elements,

1 28379U 04027B   14292.12432924 -.00000413  00000-0 -28713-2 0  7178
2 28379 007.2442 301.2611 7290776 141.7714 340.3374 02.07922526 77910
Epoch (UTC): 19 October 2014 02:59:02
Eccentricity: 0.7290776
inclination: 7.2442°
perigee height: 647 km
apogee height: 38456 km
right ascension of ascending node: 301.2611°
argument of perigee: 141.7714°
revolutions per day: 2.07922526
mean anomaly at epoch: 340.3374°
orbit number at epoch: 7791

The dashed part of the orbit path shows where the satellite is in the earth's shadow,  

DLR